Flag for Canada Weather past 2 weeks in Mount Pearl, Newfoundland and Labrador, Canada

Now
41 °F

Broken clouds.


Feels Like: 33 °F
Forecast: 33 / 43 °F
Wind: 15 mph from West

Location: St. John's

Current Time: Dec 26, 2014 at 3:59:02 PM

Latest Report: Dec 26, 2014 at 3:30 PM


Visibility: 15 mi

Pressure: 29.58 "Hg

Humidity: 81%

Dew point: 36 °F

Location of Mount PearlLocation

Historic Weather in Mount Pearl — Graph

°F

Mount Pearl temperature yesterday

Maximum temperature yesterday: 37 °F (at 9:30 PM)
Minimum temperature yesterday: 30 °F (at 12:30 AM)
Average temperature yesterday: 34 °F

Past Weeks' High & Low Weather Summary

 TemperatureHumidityPressure
High54 °F (Dec 13, 11:30 AM)100% (Dec 11, 2:30 PM)30.52 "Hg (Dec 11, 2:30 PM)
Low25 °F (Dec 21, 6:30 PM)69% (Dec 20, 7:30 PM)29.35 "Hg (Dec 19, 5:30 AM)
Average36 °F92%30.04 "Hg
* Reported Dec 11 2:30 PM — Dec 26 2:30 PM, Mount Pearl, Weather by CustomWeather, © 2014

Note: Actual official high and low records may vary slightly from our data, if they occured in-between our weather recording intervals... More about our weather records

Advertising

Mount Pearl weather history for previous 24 hours

 ConditionsComfort  
Time TempWeatherWind HumidityBarometerVisibility
2:30 PM
Dec 26
41 °FPartly sunny.9 mph87%29.57 "Hg15 mi
1:30 PM41 °FPartly sunny.10 mph87%29.56 "Hg15 mi
12:30 PM41 °FPartly sunny.13 mph93%29.55 "Hg15 mi
11:30 AM41 °FBroken clouds.8 mph93%29.57 "Hg15 mi
10:30 AM41 °FDrizzle. More clouds than sun.14 mph100%29.58 "Hg15 mi
9:30 AM43 °FDrizzle. Fog.15 mph100%29.58 "Hg3 mi
9:25 AM43 °FDrizzle. Fog.16 mph100%29.58 "Hg3 mi
8:30 AM41 °FDrizzle. Fog.28 mph100%29.58 "Hg5 mi
8:23 AM41 °FDrizzle. Fog.24 mph100%29.58 "Hg5 mi
7:30 AM41 °FLight rain. Low clouds.24 mph93%29.59 "Hg8 mi
6:30 AM39 °FLight rain. Fog.26 mph100%29.59 "Hg6 mi
5:30 AM39 °FLight rain. Mostly cloudy.26 mph93%29.63 "Hg10 mi
4:30 AM39 °FRain. Fog.24 mph93%29.65 "Hg6 mi
3:30 AM39 °FLight rain. Fog.21 mph93%29.70 "Hg6 mi
3:19 AM39 °FLight rain. Fog.35 mph93%29.62 "Hg6 mi
2:30 AM39 °FLight rain. Mostly cloudy.37 mph93%29.63 "Hg8 mi
1:30 AM37 °FMostly cloudy.31 mph100%29.67 "Hg10 mi
12:30 AM37 °FMostly cloudy.37 mph93%29.70 "Hg10 mi
11:30 PM
Dec 25
37 °FLow clouds.32 mph93%29.77 "Hg8 mi
10:30 PM37 °FLow clouds.36 mph93%29.84 "Hg12 mi
9:30 PM37 °FLow clouds.28 mph93%29.90 "Hg15 mi
8:30 PM36 °FLow clouds.26 mph100%29.94 "Hg15 mi
7:30 PM36 °FLow clouds.29 mph93%29.99 "Hg15 mi
6:30 PM36 °FLow clouds.30 mph93%30.03 "Hg15 mi
5:30 PM36 °FLow clouds.30 mph93%30.06 "Hg15 mi
4:30 PM36 °FLow clouds.28 mph93%30.09 "Hg15 mi
3:30 PM36 °FLow clouds.25 mph93%30.14 "Hg15 mi
Weather by CustomWeather, © 2014

See weather overviewHow to use our weather pages